[[{"header":{"parameterUnit":"m.s-1","parameterCategory":1,"la1":30.2991,"la2":30.254,"lo1":-89.0895,"lo2":-89.0444,"dy":0.0017,"dx":0.0017,"nx":28,"ny":28,"refTime":"2023-10-22T09:00:00:Z","depth":0,"parameterNumber":2,"parameterNumberName":"U-component_of_WINDS"},"data":[0,0,0,0,0,0,0,0,0,0,0,0,0,0,0,0,0,0,0,0,0,0,0,0,0,0,0,0,0,0,0,0,0,0,0,0,0,0,0,0,0,0,0,0,0,0,0,0,0,0,0,0,0,0,0,0,0,0,0.0226,0.0226,0,0.0272,0.0272,0.0273,0.03,0.03,0.03,0.03,0.0347,0.0348,0.0349,0,0,0,0,0,0,0,0,0,0,0,0,0,0.0162,0.0163,0.0226,0.0226,0.0227,0.0272,0.0272,0.0273,0.03,0.03,0.03,0.0301,0.0346,0.0348,0.0349,0,0,0,0,0,0,0,0,0,0,0,0,0,0.0197,0.0163,0.0225,0.0246,0.0248,0.0272,0.0272,0.0273,0.03,0.03,0.03,0.0301,0.0346,0.0348,0.0349,0.0356,0,0,0.0354,0.0355,0,0,0,0,0,0,0,0,0.0195,0.0199,0.0242,0.0244,0.0247,0.028,0.0267,0.0301,0.03,0.028,0.03,0.0301,0.0325,0.0328,0.0336,0.0358,0.036,0.0355,0.0356,0.0356,0.0357,0,0,0,0,0,0,0,0.0192,0.0197,0.0244,0.0243,0.0246,0.0253,0.0258,0.0273,0.0301,0.0282,0.0284,0.0289,0.0326,0.0335,0.0338,0.0361,0.0355,0.0356,0.0357,0.0358,0.0393,0.0393,0,0,0,0,0,0,0.0186,0.0195,0.0242,0.0245,0.0221,0.0254,0.026,0.0269,0.0301,0.0306,0.0289,0.029,0.0332,0.0336,0.0339,0.0351,0.0356,0.0358,0.0359,0.0393,0.0393,0.0393,0,0,0,0,0,0,0.0185,0.019,0.0241,0.0221,0.0228,0.0255,0.0266,0.027,0.0279,0.0306,0.0311,0.0293,0.0332,0.0337,0.0352,0.0353,0.0359,0.036,0.0393,0.0393,0.0393,0.0373,0,0,0,0,0,0,0.0183,0.019,0.0192,0.0221,0.0229,0.0252,0.0266,0.0271,0.0282,0.0284,0.0311,0.0316,0.0332,0.035,0.0354,0.0355,0.0362,0.0394,0.0393,0.0393,0.0373,0.0372,0.0371,0,0,0,0,0,0.0181,0.0184,0.0192,0.0198,0.0232,0.0252,0.0257,0.0277,0.0282,0.0285,0.0303,0.0315,0.0352,0.0351,0.0356,0.0358,0.0394,0.0393,0.0393,0.0374,0.0372,0.0371,0,0,0,0,0,0,0.0154,0.0188,0.0198,0.021,0.0228,0.0257,0.0261,0.0274,0.029,0.0292,0.0315,0.0321,0.0334,0.0348,0.0346,0.0367,0.0374,0.0375,0.0358,0.0356,0.0355,0.0352,0.0363,0,0,0,0,0,0.015,0.0164,0.0192,0.0201,0.0209,0.0234,0.0243,0.0257,0.0277,0.0284,0.0303,0.0322,0.0338,0.0348,0.0364,0.0376,0.0383,0.0379,0.0378,0.0377,0.0377,0.0386,0.0386,0.0393,0.0393,0.0393,0,0,0.0141,0.0161,0.0168,0.0196,0.0212,0.0226,0.024,0.0254,0.0264,0.0286,0.0302,0.0317,0.0339,0.0353,0.0361,0.0365,0.0377,0.0376,0.0375,0.0377,0.0386,0.0385,0.0385,0.0393,0.0393,0.0393,0,0,0.0132,0.0148,0.0158,0.0174,0.0198,0.0215,0.0217,0.0244,0.0255,0.0272,0.0289,0.0302,0.0329,0.0345,0.0356,0.0356,0.0368,0.036,0.0353,0.0361,0.0361,0.036,0.0361,0.0361,0.0361,0.0361,0.0361,0,0.0118,0.014,0.0161,0.0175,0.0187,0.0208,0.0219,0.0233,0.0261,0.0269,0.0274,0.0309,0.0325,0.0344,0.0345,0.0353,0.0357,0.0357,0.0359,0.0359,0.0359,0.036,0.036,0.036,0.036,0.036,0.036,0,0.0122,0.0137,0.0142,0.0169,0.0182,0.0194,0.0217,0.0228,0.0241,0.0257,0.0275,0.0296,0.0317,0.0323,0.0335,0.0344,0.0346,0.0355,0.0362,0.0357,0.0359,0.0359,0.0358,0.0359,0.0359,0.0359,0,0,0.0097,0.0137,0.0139,0.0152,0.0181,0.0193,0.0207,0.0228,0.0238,0.0256,0.0269,0.0292,0.0301,0.0314,0.0328,0.0336,0.0336,0.0343,0.0344,0.0342,0.0349,0.0342,0.0343,0.0344,0.0344,0.0344,0.0347,0,0.0093,0.0118,0.0139,0.0156,0.0171,0.0192,0.0204,0.0224,0.024,0.0255,0.0272,0.0289,0.0298,0.0307,0.0315,0.0334,0.0337,0.0334,0.0356,0.0357,0.0351,0.0343,0.0336,0.0338,0.0348,0.0348,0.0348,0,0.0091,0.011,0.013,0.0159,0.0166,0.0176,0.0199,0.0213,0.0236,0.0247,0.0263,0.0278,0.0294,0.0301,0.0323,0.0321,0.0331,0.0342,0.0343,0.0346,0.0352,0.0347,0.0339,0.0339,0.0349,0.0349,0.0349,0,0.0072,0.0103,0.0119,0.013,0.0164,0.0171,0.0185,0.0208,0.0221,0.0241,0.0249,0.027,0.0282,0.0298,0.032,0.0322,0.0341,0.0349,0.0352,0.0351,0.0354,0.0354,0.0348,0.036,0.036,0.036,0.036,0,0.0066,0.0077,0.0111,0.0121,0.0135,0.0159,0.0172,0.0188,0.0209,0.0223,0.0242,0.0255,0.0282,0.0299,0.0315,0.0333,0.0337,0.0348,0.0352,0.0346,0.0345,0.0353,0.0354,0.036,0.036,0.036,0.036,0,0.0047,0.007,0.0089,0.012,0.0129,0.0137,0.0165,0.0175,0.0193,0.0211,0.0216,0.0244,0.0264,0.0287,0.0315,0.0326,0.0343,0.0349,0.0335,0.0338,0.034,0.0339,0.034,0.0342,0.0351,0.0351,0.0351,0,0.0042,0.0051,0.0084,0.0095,0.0109,0.0126,0.014,0.0164,0.0177,0.0205,0.0213,0.0235,0.0254,0.0285,0.0308,0.033,0.0337,0.0336,0.0341,0.0335,0.0338,0.0338,0.034,0.0335,0.0334,0.0334,0.0334,0,0.003,0.0042,0.006,0.0083,0.0098,0.0117,0.0137,0.0145,0.0174,0.0188,0.0209,0.0224,0.0253,0.0275,0.03,0.0316,0.033,0.0333,0.0335,0.0329,0.0321,0.0326,0.0332,0.0332,0.0332,0.0333,0.0333,0.0333,0.0019,0.0029,0.0054,0.0074,0.0092,0.011,0.0123,0.0143,0.0161,0.0187,0.02,0.0222,0.0246,0.0282,0.0297,0.0315,0.0319,0.0322,0.0322,0.0323,0.0322,0.0318,0.0319,0.0319,0.0319,0.0319,0.0319,0,0.0009,0.0027,0.0045,0.0073,0.0089,0.0102,0.0125,0.0138,0.0157,0.0179,0.0197,0.0223,0.0245,0.027,0.0294,0.0303,0.0311,0.0309,0.0308,0.0312,0.0316,0.0312,0.0303,0.0303,0.0303,0.0303,0.0303,0.0303,0.0006,0.0024,0.0039,0.0066,0.0084,0.0106,0.0118,0.0136,0.0153,0.0181,0.02,0.0216,0.024,0.0266,0.0287,0.0294,0.0302,0.0299,0.0307,0.031,0.0312,0.0313,0.031,0.03,0.03,0.0303,0.0303,0.0303]},{"header":{"parameterUnit":"m.s-1","parameterCategory":1,"la1":30.2991,"la2":30.254,"lo1":-89.0895,"lo2":-89.0444,"dy":0.0017,"dx":0.0017,"nx":28,"ny":28,"refTime":"2023-10-22T09:00:00:Z","depth":0,"parameterNumber":3,"parameterNumberName":"V-component_of_WINDS"},"data":[0,0,0,0,0,0,0,0,0,0,0,0,0,0,0,0,0,0,0,0,0,0,0,0,0,0,0,0,0,0,0,0,0,0,0,0,0,0,0,0,0,0,0,0,0,0,0,0,0,0,0,0,0,0,0,0,0,0,-0.7017,-0.7017,0,-0.6995,-0.6995,-0.6995,-0.6971,-0.697,-0.697,-0.697,-0.6947,-0.6947,-0.6947,0,0,0,0,0,0,0,0,0,0,0,0,0,-0.7038,-0.7038,-0.7017,-0.7017,-0.7016,-0.6995,-0.6995,-0.6994,-0.6971,-0.697,-0.697,-0.697,-0.6947,-0.6947,-0.6947,0,0,0,0,0,0,0,0,0,0,0,0,0,-0.7024,-0.7038,-0.7017,-0.7002,-0.7,-0.6995,-0.6995,-0.6994,-0.6971,-0.697,-0.697,-0.6969,-0.6947,-0.6947,-0.6947,-0.6954,0,0,-0.6945,-0.6945,0,0,0,0,0,0,0,0,-0.7025,-0.7023,-0.7004,-0.7003,-0.7001,-0.6985,-0.6994,-0.6981,-0.6971,-0.6982,-0.697,-0.6969,-0.696,-0.6959,-0.6956,-0.6953,-0.6952,-0.6945,-0.6945,-0.6945,-0.6945,0,0,0,0,0,0,0,-0.7026,-0.7024,-0.7008,-0.7004,-0.7002,-0.6996,-0.6994,-0.6991,-0.6974,-0.6981,-0.6979,-0.6977,-0.6959,-0.6956,-0.6955,-0.6952,-0.6945,-0.6945,-0.6945,-0.6945,-0.6954,-0.6955,0,0,0,0,0,0,-0.7029,-0.7025,-0.7009,-0.7008,-0.7012,-0.6996,-0.6993,-0.6991,-0.6974,-0.6971,-0.6978,-0.6976,-0.6957,-0.6956,-0.6954,-0.6962,-0.6945,-0.6945,-0.6944,-0.6954,-0.6954,-0.6955,0,0,0,0,0,0,-0.7029,-0.7028,-0.701,-0.7016,-0.7013,-0.6997,-0.6994,-0.6991,-0.6988,-0.6972,-0.6968,-0.6978,-0.6957,-0.6955,-0.6954,-0.6961,-0.6944,-0.6944,-0.6953,-0.6954,-0.6955,-0.6977,0,0,0,0,0,0,-0.703,-0.7028,-0.7031,-0.7016,-0.7013,-0.701,-0.6994,-0.6991,-0.6987,-0.6985,-0.6971,-0.6968,-0.6956,-0.6955,-0.6954,-0.696,-0.6944,-0.6953,-0.6954,-0.6955,-0.6976,-0.6979,-0.6981,0,0,0,0,0,-0.7031,-0.7038,-0.7031,-0.7029,-0.7016,-0.7011,-0.7009,-0.6995,-0.6988,-0.699,-0.698,-0.6968,-0.696,-0.6955,-0.6954,-0.696,-0.6952,-0.6953,-0.6954,-0.6975,-0.6978,-0.6981,0,0,0,0,0,0,-0.7054,-0.7036,-0.7028,-0.703,-0.7022,-0.7007,-0.701,-0.7,-0.6994,-0.6992,-0.6975,-0.6972,-0.6974,-0.6967,-0.6961,-0.6966,-0.6955,-0.6956,-0.6971,-0.6974,-0.6976,-0.6978,-0.6943,0,0,0,0,0,-0.7059,-0.7057,-0.7041,-0.7045,-0.7041,-0.7026,-0.7024,-0.7014,-0.7005,-0.7001,-0.6991,-0.6983,-0.6978,-0.6976,-0.6971,-0.6975,-0.6971,-0.6978,-0.6981,-0.6983,-0.6984,-0.6986,-0.6988,-0.6959,-0.6959,-0.6959,0,0,-0.7071,-0.706,-0.706,-0.7049,-0.7042,-0.704,-0.7024,-0.7022,-0.702,-0.7001,-0.7,-0.6992,-0.6982,-0.6984,-0.6984,-0.6978,-0.6991,-0.6985,-0.6986,-0.6986,-0.6987,-0.699,-0.6992,-0.696,-0.6959,-0.6959,0,0,-0.7089,-0.7082,-0.7084,-0.7077,-0.7066,-0.7056,-0.7056,-0.7042,-0.7036,-0.7035,-0.7021,-0.7018,-0.7011,-0.7004,-0.7,-0.7016,-0.7005,-0.7015,-0.7029,-0.7031,-0.7033,-0.7035,-0.7041,-0.7043,-0.7016,-0.7016,-0.7016,0,-0.7104,-0.71,-0.7086,-0.7085,-0.7081,-0.7064,-0.7066,-0.706,-0.7048,-0.7045,-0.7038,-0.7029,-0.7021,-0.7021,-0.7025,-0.7022,-0.7022,-0.7017,-0.7034,-0.7036,-0.7037,-0.7042,-0.7045,-0.7017,-0.7017,-0.7017,-0.7017,0,-0.7119,-0.7117,-0.712,-0.7109,-0.7105,-0.7106,-0.7091,-0.7089,-0.708,-0.707,-0.7069,-0.7059,-0.7051,-0.7051,-0.7042,-0.705,-0.7046,-0.7037,-0.7025,-0.7041,-0.7046,-0.7048,-0.7019,-0.7019,-0.7018,-0.7018,0,0,-0.7152,-0.7133,-0.7134,-0.7129,-0.7116,-0.7113,-0.7113,-0.7106,-0.7104,-0.7097,-0.7096,-0.7091,-0.7082,-0.7077,-0.7067,-0.7069,-0.7082,-0.7059,-0.7058,-0.7063,-0.709,-0.7097,-0.7099,-0.7075,-0.7075,-0.7075,-0.7091,0,-0.7168,-0.7167,-0.7154,-0.7156,-0.7154,-0.7137,-0.7137,-0.7129,-0.712,-0.7117,-0.7107,-0.7104,-0.7093,-0.7089,-0.709,-0.708,-0.7087,-0.7079,-0.7074,-0.7074,-0.7077,-0.7102,-0.7109,-0.7124,-0.7092,-0.7093,-0.7093,0,-0.7187,-0.7181,-0.7183,-0.7169,-0.7168,-0.7168,-0.716,-0.7157,-0.7148,-0.7141,-0.7136,-0.7124,-0.7123,-0.7112,-0.711,-0.7105,-0.7102,-0.7097,-0.7098,-0.7096,-0.7084,-0.7101,-0.7128,-0.7131,-0.7096,-0.7096,-0.7095,0,-0.721,-0.7202,-0.7202,-0.7198,-0.7183,-0.7183,-0.7177,-0.7167,-0.7163,-0.7157,-0.7154,-0.7148,-0.7144,-0.7139,-0.7126,-0.7119,-0.7126,-0.7114,-0.712,-0.7121,-0.7122,-0.7122,-0.7149,-0.7121,-0.7121,-0.7121,-0.7121,0,-0.723,-0.7232,-0.7213,-0.7213,-0.7214,-0.7199,-0.7201,-0.7193,-0.7185,-0.7183,-0.7168,-0.7167,-0.715,-0.7147,-0.7137,-0.7137,-0.7135,-0.713,-0.7127,-0.7131,-0.7132,-0.7129,-0.7128,-0.7121,-0.7121,-0.7121,-0.7121,0,-0.7256,-0.7243,-0.7242,-0.7228,-0.7224,-0.7226,-0.7214,-0.7213,-0.7204,-0.7201,-0.72,-0.7185,-0.7181,-0.7168,-0.716,-0.7153,-0.7156,-0.7151,-0.7159,-0.7157,-0.7164,-0.7164,-0.719,-0.7193,-0.7163,-0.7163,-0.7164,0,-0.7269,-0.727,-0.7256,-0.7254,-0.7248,-0.7244,-0.7241,-0.7226,-0.7223,-0.7212,-0.7213,-0.7207,-0.7202,-0.7195,-0.7184,-0.7178,-0.7172,-0.7182,-0.7171,-0.7175,-0.7172,-0.7172,-0.7172,-0.7184,-0.7185,-0.7185,-0.7185,0,-0.7294,-0.7288,-0.7283,-0.7276,-0.7272,-0.7266,-0.7259,-0.7258,-0.7242,-0.7239,-0.7234,-0.723,-0.7222,-0.7216,-0.7208,-0.7201,-0.7191,-0.7189,-0.719,-0.7194,-0.7199,-0.7196,-0.7165,-0.7188,-0.7188,-0.7188,-0.7187,-0.7187,-0.7314,-0.7314,-0.7304,-0.7299,-0.7292,-0.7286,-0.7285,-0.7275,-0.7271,-0.7263,-0.7255,-0.7251,-0.7241,-0.723,-0.7224,-0.722,-0.7215,-0.7216,-0.7217,-0.7218,-0.7219,-0.7199,-0.7219,-0.7219,-0.7219,-0.7219,-0.7219,0,-0.7338,-0.733,-0.7326,-0.7317,-0.7313,-0.7303,-0.7295,-0.7293,-0.7289,-0.7281,-0.7276,-0.7271,-0.7265,-0.7254,-0.7247,-0.7247,-0.7242,-0.7246,-0.7245,-0.7244,-0.7225,-0.7224,-0.725,-0.725,-0.725,-0.725,-0.725,-0.725,-0.735,-0.7349,-0.7342,-0.7338,-0.7331,-0.7327,-0.7323,-0.7317,-0.7311,-0.7305,-0.73,-0.7293,-0.7283,-0.7276,-0.7271,-0.7267,-0.7265,-0.7271,-0.7266,-0.7248,-0.7245,-0.7243,-0.7242,-0.7271,-0.7271,-0.7285,-0.7286,-0.7286]}]]